{"data":{"norad_id":47555,"intl_designator":"2021-009H","name":"STARLINK-1954","alt_names":[],"object_type":"PAYLOAD","status":"ACTIVE","operator":null,"country":"US","launch_date":"2021-02-04","launch_site_code":"AFETR","launch_vehicle":null,"mission":null,"orbit_class":"UNKNOWN","rcs_meters":null,"size_class":null,"mass_kg":null,"dimensions":null,"purposes":["comms"],"wikipedia_slug":null,"has_3d_model":false,"image_url":null,"decayed_at":null,"tle_current":{"epoch":"2026-09-20T03:53:11.749056Z","epoch_age_seconds":54987,"freshness":"FRESH","line1":"1 47555U 21009H   26263.16194154  .00039270  00000+0  67778-3 0  9996","line2":"2 47555  53.0458 169.7422 0003883 103.7159 256.4281 15.50642885310941","mean_motion":15.50642885,"eccentricity":0.0003883,"inclination_deg":53.0458,"raan_deg":169.7422,"arg_perigee_deg":103.7159,"mean_anomaly_deg":256.4281,"bstar":0.00067778,"rev_number":31094,"period_min":92.864708820432,"perigee_km":412.21015695476,"apogee_km":417.48558900711,"semimajor_km":6792.9848729809,"source":"CELESTRAK","updated_at":"2026-09-20T09:00:38.596522Z"}}}